Météo par heure à Aarberg

Ce jour, 2 Décembre, Mercredi

Heure Température Précipitation Vent Pression Humidité
00:00 -1°C° 0 mm 2 m/s 715 mmHg 96%
01:00 -1°C° 0 mm 2 m/s 715 mmHg 96%
02:00 -1°C° 0 mm 2 m/s 715 mmHg 96%
03:00 -1°C° 0 mm 2 m/s 715 mmHg 96%
04:00 -1°C° 0 mm 2 m/s 715 mmHg 96%
05:00 -1°C° 0 mm 2 m/s 714 mmHg 95%
06:00 -1°C° 0 mm 2 m/s 714 mmHg 95%
07:00 -1°C° 0 mm 2 m/s 714 mmHg 94%
08:00 +1°C° 0 mm 2 m/s 714 mmHg 92%
09:00 0°C° 0 mm 3 m/s 714 mmHg 91%
10:00 0°C° 0 mm 3 m/s 714 mmHg 88%
11:00 +1°C° 0 mm 3 m/s 713 mmHg 85%
12:00 +1°C° 0 mm 3 m/s 713 mmHg 82%
13:00 +2°C° 0 mm 2 m/s 713 mmHg 84%
14:00 +1°C° 0 mm 2 m/s 713 mmHg 86%
15:00 +1°C° 0 mm 2 m/s 712 mmHg 88%
16:00 +2°C° 0 mm 1 m/s 713 mmHg 89%
17:00 +1°C° 0 mm 1 m/s 713 mmHg 90%
18:00 0°C° 0 mm 0 m/s 713 mmHg 91%
19:00 0°C° 0 mm 0 m/s 713 mmHg 91%
20:00 -1°C° 0 mm 0 m/s 713 mmHg 92%
21:00 -1°C° 0 mm 0 m/s 714 mmHg 92%
22:00 -1°C° 0 mm 0 m/s 713 mmHg 92%
23:00 -1°C° 0 mm 1 m/s 713 mmHg 92%

Demain, 3 Décembre, Jeudi

Heure Température Précipitation Vent Pression Humidité
00:00 -1°C° 0 mm 1 m/s 713 mmHg 92%
01:00 -1°C° 0 mm 1 m/s 712 mmHg 92%
02:00 -1°C° 0 mm 1 m/s 712 mmHg 91%
03:00 -1°C° 0 mm 1 m/s 712 mmHg 91%
04:00 -1°C° 0 mm 1 m/s 711 mmHg 91%
05:00 -1°C° 0 mm 1 m/s 711 mmHg 91%
06:00 -1°C° 0 mm 1 m/s 711 mmHg 90%
07:00 0°C° 0 mm 1 m/s 710 mmHg 87%
08:00 -1°C° 0 mm 2 m/s 710 mmHg 84%
09:00 +2°C° 0 mm 2 m/s 710 mmHg 80%
10:00 +3°C° 0 mm 2 m/s 709 mmHg 76%
11:00 +4°C° 0 mm 2 m/s 708 mmHg 73%
12:00 +5°C° 0 mm 2 m/s 708 mmHg 69%
13:00 +4°C° 0 mm 2 m/s 707 mmHg 72%
14:00 +3°C° 0 mm 2 m/s 706 mmHg 75%
15:00 +3°C° 0 mm 2 m/s 705 mmHg 79%
16:00 +3°C° 0 mm 1 m/s 705 mmHg 78%
17:00 +3°C° 0 mm 1 m/s 705 mmHg 78%
18:00 +2°C° 0 mm 1 m/s 704 mmHg 78%
19:00 +2°C° 0 mm 1 m/s 703 mmHg 77%
20:00 +2°C° 0 mm 1 m/s 703 mmHg 76%
21:00 +2°C° 0 mm 1 m/s 702 mmHg 76%
22:00 +2°C° 0 mm 1 m/s 702 mmHg 75%
23:00 +1°C° 0 mm 2 m/s 701 mmHg 75%

Après-demain, 4 Décembre, Vendredi

Heure Température Précipitation Vent Pression Humidité
00:00 +2°C° 0 mm 2 m/s 701 mmHg 74%
01:00 +2°C° 0 mm 2 m/s 700 mmHg 73%
02:00 +2°C° 0 mm 1 m/s 699 mmHg 73%
03:00 +2°C° 0 mm 1 m/s 698 mmHg 72%
04:00 +2°C° 0 mm 1 m/s 698 mmHg 72%
05:00 +2°C° 0 mm 1 m/s 698 mmHg 72%
06:00 +2°C° 0 mm 1 m/s 697 mmHg 72%
07:00 +3°C° 0.1 mm 1 m/s 697 mmHg 74%
08:00 +3°C° 0.1 mm 1 m/s 697 mmHg 75%
09:00 +2°C° 0.1 mm 2 m/s 697 mmHg 77%
10:00 +4°C° 0.4 mm 1 m/s 697 mmHg 79%
11:00 +4°C° 0.4 mm 1 m/s 697 mmHg 81%
12:00 +5°C° 0.4 mm 1 m/s 697 mmHg 84%
13:00 +4°C° 0.8 mm 1 m/s 697 mmHg 88%
14:00 +3°C° 0.8 mm 0 m/s 697 mmHg 92%
15:00 +2°C° 0.8 mm 0 m/s 697 mmHg 96%
16:00 +2°C° 0.3 mm 0 m/s 697 mmHg 96%
17:00 +2°C° 0.3 mm 0 m/s 697 mmHg 97%
18:00 +1°C° 0.3 mm 0 m/s 698 mmHg 98%
19:00 +1°C° 0.9 mm 0 m/s 698 mmHg 98%
20:00 +1°C° 0.9 mm 0 m/s 698 mmHg 98%
21:00 +1°C° 0.9 mm 0 m/s 698 mmHg 98%
22:00 +1°C° 0.8 mm 0 m/s 698 mmHg 98%
23:00 +1°C° 0.8 mm 0 m/s 698 mmHg 98%

5 Décembre, Samedi

Heure Température Précipitation Vent Pression Humidité
00:00 +1°C° 0.8 mm 0 m/s 698 mmHg 98%
01:00 +1°C° 0.8 mm 0 m/s 698 mmHg 98%
02:00 +1°C° 0.8 mm 0 m/s 698 mmHg 98%
03:00 +1°C° 0.8 mm 0 m/s 698 mmHg 98%
04:00 +1°C° 0.6 mm 0 m/s 698 mmHg 98%
05:00 +1°C° 0.6 mm 0 m/s 698 mmHg 98%
06:00 +2°C° 0.6 mm 1 m/s 698 mmHg 98%
07:00 +1°C° 0.8 mm 0 m/s 699 mmHg 98%
08:00 +1°C° 0.8 mm 0 m/s 699 mmHg 98%
09:00 +1°C° 0.8 mm 0 m/s 700 mmHg 98%
10:00 +2°C° 0.5 mm 0 m/s 700 mmHg 98%
11:00 +2°C° 0.5 mm 0 m/s 700 mmHg 98%
12:00 +2°C° 0.5 mm 0 m/s 700 mmHg 98%
13:00 +2°C° 0.1 mm 0 m/s 700 mmHg 98%
14:00 +2°C° 0.1 mm 0 m/s 700 mmHg 98%
15:00 +2°C° 0.1 mm 0 m/s 700 mmHg 98%
16:00 +1°C° 0.1 mm 0 m/s 701 mmHg 98%
17:00 +1°C° 0.1 mm 0 m/s 701 mmHg 98%
18:00 +1°C° 0.1 mm 0 m/s 701 mmHg 98%
19:00 0°C° 0 mm 0 m/s 701 mmHg 98%
20:00 0°C° 0 mm 0 m/s 701 mmHg 97%
21:00 +1°C° 0 mm 1 m/s 701 mmHg 97%
22:00 +1°C° 0 mm 1 m/s 701 mmHg 96%
23:00 0°C° 0 mm 1 m/s 701 mmHg 96%

6 Décembre, Dimanche

Heure Température Précipitation Vent Pression Humidité
00:00 -1°C° 0 mm 0 m/s 701 mmHg 96%
01:00 0°C° 0 mm 1 m/s 701 mmHg 95%
02:00 0°C° 0 mm 1 m/s 701 mmHg 95%
03:00 -1°C° 0 mm 1 m/s 701 mmHg 95%
04:00 -1°C° 0 mm 1 m/s 701 mmHg 95%
05:00 -1°C° 0 mm 1 m/s 700 mmHg 94%
06:00 -2°C° 0 mm 1 m/s 700 mmHg 94%
07:00 -1°C° 0 mm 1 m/s 700 mmHg 93%
08:00 0°C° 0 mm 1 m/s 700 mmHg 92%
09:00 +1°C° 0 mm 1 m/s 700 mmHg 92%
10:00 +2°C° 0 mm 1 m/s 700 mmHg 91%
11:00 +2°C° 0 mm 1 m/s 701 mmHg 90%
12:00 +3°C° 0 mm 1 m/s 701 mmHg 89%
13:00 +3°C° 0 mm 1 m/s 701 mmHg 91%
14:00 +2°C° 0 mm 1 m/s 701 mmHg 93%
15:00 +2°C° 0 mm 1 m/s 700 mmHg 94%
16:00 +1°C° 0 mm 1 m/s 701 mmHg 94%
17:00 +1°C° 0 mm 1 m/s 701 mmHg 93%
18:00 0°C° 0 mm 1 m/s 702 mmHg 93%
19:00 0°C° 0 mm 1 m/s 702 mmHg 93%
20:00 0°C° 0 mm 1 m/s 702 mmHg 92%
21:00 -1°C° 0 mm 1 m/s 703 mmHg 92%
22:00 0°C° 0.1 mm 1 m/s 703 mmHg 92%
23:00 0°C° 0.1 mm 1 m/s 703 mmHg 92%

7 Décembre, Lundi

Heure Température Précipitation Vent Pression Humidité
00:00 0°C° 0.1 mm 1 m/s 703 mmHg 92%
01:00 0°C° 0.1 mm 1 m/s 703 mmHg 91%
02:00 0°C° 0.1 mm 1 m/s 703 mmHg 91%
03:00 0°C° 0.1 mm 1 m/s 704 mmHg 91%
04:00 0°C° 0.1 mm 1 m/s 704 mmHg 91%
05:00 0°C° 0.1 mm 1 m/s 704 mmHg 90%
06:00 0°C° 0.1 mm 1 m/s 704 mmHg 90%
07:00 0°C° 0.2 mm 1 m/s 704 mmHg 91%
08:00 +1°C° 0.2 mm 1 m/s 705 mmHg 92%
09:00 +1°C° 0.2 mm 1 m/s 705 mmHg 92%
10:00 +2°C° 0.1 mm 1 m/s 705 mmHg 92%
11:00 +3°C° 0.1 mm 1 m/s 705 mmHg 92%
12:00 +2°C° 0.1 mm 2 m/s 706 mmHg 92%
13:00 +2°C° 0.2 mm 2 m/s 706 mmHg 92%
14:00 +2°C° 0.2 mm 1 m/s 706 mmHg 93%
15:00 +2°C° 0.2 mm 1 m/s 706 mmHg 93%
16:00 +1°C° 0.1 mm 1 m/s 707 mmHg 93%
17:00 0°C° 0.1 mm 1 m/s 707 mmHg 93%
18:00 0°C° 0.1 mm 1 m/s 708 mmHg 93%
19:00 -1°C° 0 mm 1 m/s 708 mmHg 93%
20:00 -2°C° 0 mm 1 m/s 708 mmHg 92%
21:00 -2°C° 0 mm 1 m/s 708 mmHg 92%
22:00 -2°C° 0 mm 1 m/s 708 mmHg 91%
23:00 -3°C° 0 mm 1 m/s 709 mmHg 91%
Voir plus

Nous avons besoin de votre consentement

Meteoprog et ses fournisseurs de services peuvent stocker et accéder à des données personnelles telles que des cookies, des identifiants d'appareils ou d'autres technologies similaires sur votre appareil et traiter ces données pour personnaliser le contenu et les publicités, ainsi que pour fournir des fonctionnalités de médias sociaux et analyser le trafic.

  • Stocker et/ou accéder à des informations sur votre appareil

    Des cookies, des identifiants d'appareils ou d'autres informations peuvent être stockés ou accessibles sur votre appareil aux fins indiquées ci-dessus.

  • Annonces et contenus personnalisés, mesure des annonces et des contenus, connaissance de l'audience et développement de produits

    Les annonces et le contenu peuvent être personnalisés en fonction d'un profil. D'autres données peuvent être ajoutées pour mieux personnaliser les annonces et le contenu. Les performances des publicités et du contenu peuvent être mesurées. Il est possible d'obtenir des informations sur le public qui a vu les publicités et le contenu. Ces données peuvent être utilisées pour développer ou améliorer l'expérience de l'utilisateur, les systèmes et les logiciels.

En cliquant sur "J'accepte", vous autorisez l'utilisation de cookies, des identifiants d'appareils, des balises web ou d'autres technologies similaires. Vos paramètres peuvent être modifiés dans le navigateur de votre appareil.

Dans certains cas, des intérêts légitimes peuvent être invoqués plutôt qu'un consentement. Vous pouvez en savoir plus à ce sujet dans notre Politique de confidentialité et de cookies.